Weather History for Karlovy Vary, Czech Republic

Change the Weather History Date:

Friday, January 4, 2013

  Actual Average (EDQM) Record (EDQM)
Temperature  
Mean Temperature 42 °F -  
Max Temperature 44 °F 31 °F 46 °F (2013)
Min Temperature 41 °F 26 °F 0 °F (2002)
Degree Days  
Heating Degree Days 22    
Moisture  
Dew Point 41 °F    
Average Humidity 94    
Maximum Humidity 100    
Minimum Humidity 87    
Precipitation  
Precipitation 0.00 in - - ()
Sea Level Pressure  
Sea Level Pressure 30.35 in    
Wind  
Wind Speed 12 mph ()    
Max Wind Speed 17 mph    
Max Gust Speed 24 mph    
Visibility 5.4 miles    
Events Rain    
Averages and records for this station are not official NWS values.
T = Trace of Precipitation, MM = Missing Value Source: Averaged Metar Reports

Daily Weather History Graph

Daily Weather History Graph

Search for Another Location

Airport:

Trip Planner

Search our weather history database for the weather conditions in past years. The results will help you decide how hot, cold, wet, or windy it might be!

Date:

Astronomy

Jan. 04, 2013 Rise Set
Actual Time 8:07 AM CET 4:19 PM CET
Civil Twilight 7:29 AM CET 4:57 PM CET
Nautical Twilight 6:47 AM CET 5:39 PM CET
Astronomical Twilight 6:08 AM CET 6:18 PM CET
Moon No Moon Rise 10:55 AM CET (1/4)
Length of Visible Light 9h 28m
Length of Day
8h 12m
Waning Gibbous, 58% of the Moon is Illuminated
Jan 4
Waning Gibbous
Jan 5
Last Quarter
Jan 11
New
Jan 19
First Quarter
Jan 27
Full

Hourly Weather History & Observations

Time (CET) Temp. Windchill Dew Point Humidity Pressure Visibility Wind Dir Wind Speed Gust Speed Precip Events Conditions
12:00 AM 41.0 °F 32.5 °F 39.2 °F 93% 30.36 in 6.2 mi West 17.3 mph - N/A   Overcast
1:00 AM 41.0 °F 32.8 °F 39.2 °F 93% 30.36 in 6.2 mi West 16.1 mph - N/A   Overcast
2:00 AM 41.0 °F 33.9 °F 39.2 °F 93% 30.39 in 6.2 mi West 12.7 mph - N/A Rain Light Rain
3:00 AM 41.0 °F 34.3 °F 41.0 °F 100% 30.39 in 6.2 mi West 11.5 mph - N/A Rain Light Rain
4:00 AM 42.8 °F 36.6 °F 41.0 °F 93% 30.39 in 6.2 mi West 11.5 mph 24.2 mph N/A   Mostly Cloudy
5:00 AM 42.8 °F 36.2 °F 39.2 °F 87% 30.39 in 6.2 mi West 12.7 mph - N/A   Mostly Cloudy
6:00 AM 41.0 °F 34.7 °F 37.4 °F 87% 30.39 in 6.2 mi West 10.4 mph - N/A   Mostly Cloudy
7:00 AM 42.8 °F 36.6 °F 39.2 °F 87% 30.39 in 6.2 mi West 11.5 mph - N/A   Mostly Cloudy
7:30 AM 42.8 °F 37.0 °F 39.2 °F 87% 30.39 in 6.2 mi West 10.4 mph - N/A   Mostly Cloudy
8:00 AM 42.8 °F 36.6 °F 39.2 °F 87% 30.39 in 6.2 mi WSW 11.5 mph - N/A   Mostly Cloudy
8:30 AM 42.8 °F 36.2 °F 39.2 °F 87% 30.39 in 6.2 mi West 12.7 mph - N/A   Mostly Cloudy
9:00 AM 42.8 °F 36.2 °F 39.2 °F 87% 30.42 in 6.2 mi West 12.7 mph - N/A   Mostly Cloudy
9:30 AM 42.8 °F 35.8 °F 39.2 °F 87% 30.42 in 6.2 mi West 13.8 mph - N/A   Mostly Cloudy
10:00 AM 42.8 °F 35.8 °F 39.2 °F 87% 30.42 in 6.2 mi West 13.8 mph - N/A   Mostly Cloudy
10:30 AM 42.8 °F 35.8 °F 39.2 °F 87% 30.42 in 6.2 mi West 13.8 mph - N/A   Mostly Cloudy
11:00 AM 42.8 °F 35.8 °F 41.0 °F 93% 30.42 in 6.2 mi West 13.8 mph - N/A   Mostly Cloudy
11:30 AM 42.8 °F 36.6 °F 41.0 °F 93% 30.42 in 6.2 mi West 11.5 mph - N/A   Mostly Cloudy
12:00 PM 42.8 °F 37.0 °F 41.0 °F 93% 30.39 in 6.2 mi WSW 10.4 mph - N/A   Mostly Cloudy
12:30 PM 42.8 °F 37.5 °F 41.0 °F 93% 30.39 in 6.2 mi WSW 9.2 mph - N/A   Mostly Cloudy
1:00 PM 42.8 °F 36.6 °F 41.0 °F 93% 30.36 in 6.2 mi West 11.5 mph - N/A   Mostly Cloudy
1:21 PM 42.8 °F 36.6 °F 41.0 °F 93% 30.36 in 3.1 mi West 11.5 mph - N/A Rain Light Rain
1:30 PM 42.8 °F 37.0 °F 41.0 °F 93% 30.36 in 1.9 mi West 10.4 mph - N/A Rain Light Rain
2:00 PM 42.8 °F 36.6 °F 41.0 °F 93% 30.36 in 0.9 mi WSW 11.5 mph - N/A Rain Light Rain
2:30 PM 42.8 °F 36.6 °F 42.8 °F 100% 30.33 in 1.6 mi WSW 11.5 mph - N/A Rain Light Rain
3:00 PM 42.8 °F 36.6 °F 42.8 °F 100% 30.33 in 0.9 mi WSW 11.5 mph - N/A Rain Light Rain
3:30 PM 42.8 °F 36.2 °F 42.8 °F 100% 30.30 in 3.1 mi WSW 12.7 mph - N/A Rain Light Rain
4:00 PM 42.8 °F 35.8 °F 42.8 °F 100% 30.30 in 3.7 mi West 13.8 mph - N/A Rain Light Rain
4:30 PM 42.8 °F 36.2 °F 42.8 °F 100% 30.30 in 3.7 mi West 12.7 mph - N/A Rain Light Rain
5:00 PM 44.6 °F 38.1 °F 42.8 °F 93% 30.30 in 5.6 mi West 13.8 mph - N/A Rain Light Rain
5:30 PM 44.6 °F 37.8 °F 42.8 °F 93% 30.27 in 6.2 mi West 15.0 mph - N/A Rain Light Rain
6:00 PM 44.6 °F 37.8 °F 44.6 °F 100% 30.30 in 6.2 mi West 15.0 mph - N/A Rain Light Rain
6:30 PM 44.6 °F 38.1 °F 44.6 °F 100% 30.27 in 6.2 mi West 13.8 mph - N/A Rain Light Rain
7:00 PM 44.6 °F 37.8 °F 44.6 °F 100% 30.27 in 6.2 mi West 15.0 mph - N/A Rain Light Rain
7:30 PM 44.6 °F 37.8 °F 44.6 °F 100% 30.27 in 6.2 mi West 15.0 mph - N/A Rain Light Rain
8:00 PM 44.6 °F 37.4 °F 44.6 °F 100% 30.27 in 6.2 mi West 16.1 mph - N/A Rain Light Rain
9:00 PM 44.6 °F 37.4 °F 44.6 °F 100% 30.24 in 6.2 mi West 16.1 mph - N/A Rain Light Rain
10:00 PM 44.6 °F 37.2 °F 44.6 °F 100% 30.24 in 6.2 mi West 17.3 mph - N/A Rain Light Rain
11:00 PM 44.6 °F 37.8 °F 42.8 °F 93% 30.21 in 6.2 mi West 15.0 mph - N/A Rain Light Rain